"2016-02-28 00:00:00",1412571,17.82,286.8,1.743,1.02,17.49,106.1961,15.14,16.08,11.71,0,110.7,13.16,15.94,248.8
"2016-02-28 00:00:30",1412572,17.41,287.8,2.555,0.715,17.46,106.1811,15.1,16.08,11.8,0,110.7,13.16,15.90,249.8
"2016-02-28 00:01:00",1412573,18.09,285,2.354,0.998,17.5,106.1719,15.07,16.07,11.93,0,110.7,13.16,15.88,247.0
"2016-02-28 00:01:30",1412574,18.85,283.1,2.484,1.528,17.59,106.1696,15.07,16.07,11.91,0,110.7,13.17,15.87,245.1
"2016-02-28 00:02:00",1412575,18.92,287.6,3.176,0.717,17.44,106.1698,15.07,16.06,12.12,0,110.6,13.17,15.87,249.6
"2016-02-28 00:02:30",1412576,19.25,285.7,3.162,0.862,17.55,106.1702,15.07,16.05,11.93,0,110.7,13.16,15.87,247.7
"2016-02-28 00:03:00",1412577,17.64,289,1.959,0.625,17.45,106.1699,15.07,16.04,11.97,0,110.7,13.16,15.87,251.0
"2016-02-28 00:03:30",1412578,17.9,289.1,1.307,0.367,17.45,106.1662,15.06,16.04,12.02,0,110.6,13.16,15.86,251.1
"2016-02-28 00:04:00",1412579,18.82,287.4,1.631,0.316,17.45,106.1611,15.05,16.03,12.06,0,110.7,13.16,15.85,249.4
"2016-02-28 00:04:30",1412580,19.05,287.5,1.8,0.386,17.47,106.1589,15.04,16,11.98,0,110.6,13.16,15.84,249.5
"2016-02-28 00:05:00",1412581,21.06,289.2,3.065,1.702,17.45,106.1535,15.03,16.01,11.84,0,110.7,13.16,15.83,251.2
"2016-02-28 00:05:30",1412582,21.91,288.5,1.646,0.429,17.42,106.1481,15.01,16.01,11.45,0,110.6,13.16,15.82,250.5
"2016-02-28 00:06:00",1412583,23.3,288.8,1.821,0.789,17.43,106.1469,15.01,16,11.42,0,110.7,13.16,15.81,250.8
"2016-02-28 00:06:30",1412584,22.39,286.2,2.329,0.416,17.51,106.15,15.02,15.99,11.29,0,110.7,13.16,15.82,248.2
"2016-02-28 00:07:00",1412585,21.49,290.1,1.74,0.618,17.46,106.1484,15.01,15.98,11.49,0,110.7,13.16,15.82,252.1
"2016-02-28 00:07:30",1412586,18.89,288.4,2.013,0.657,17.46,106.1478,15.01,16,11.6,0,110.7,13.16,15.82,250.4
"2016-02-28 00:08:00",1412587,20.81,287.4,1.775,1.662,17.44,106.151,15.02,15.98,11.63,0,110.7,13.16,15.82,249.4
"2016-02-28 00:08:30",1412588,23,286.5,1.798,0.727,17.49,106.1499,15.02,15.98,11.37,0,110.7,13.16,15.82,248.5
"2016-02-28 00:09:00",1412589,23.08,289,1.944,0.418,17.47,106.1524,15.02,15.99,11.31,0,110.7,13.16,15.83,251.0
"2016-02-28 00:09:30",1412590,22.13,287.9,1.699,0.403,17.42,106.1505,15.02,15.97,11.48,0,110.7,13.16,15.82,249.9
"2016-02-28 00:10:00",1412591,20.03,285.9,1.2,0.501,17.47,106.1513,15.02,15.98,11.53,0,110.7,13.16,15.82,247.9
"2016-02-28 00:10:30",1412592,20.38,290.3,2.302,1.159,17.5,106.1521,15.02,15.97,11.6,0,110.7,13.16,15.83,252.3
"2016-02-28 00:11:00",1412593,22.81,291.2,3.438,0.742,17.47,106.1522,15.02,15.98,11.4,0,110.7,13.16,15.83,253.2
"2016-02-28 00:11:30",1412594,22.29,292,2.247,0.545,17.52,106.1525,15.02,15.98,11.43,0,110.7,13.16,15.83,254.0
"2016-02-28 00:12:00",1412595,22.32,290,1.316,0.498,17.43,106.1504,15.02,15.98,11.55,0,110.7,13.16,15.82,252.0
"2016-02-28 00:12:30",1412596,21.73,290.4,1.286,0.328,17.48,106.1462,15.01,15.98,11.49,0,110.7,13.16,15.81,252.4
"2016-02-28 00:13:00",1412597,21.67,288.7,1.084,0.297,17.56,106.1404,14.99,15.97,11.3,0,110.7,13.16,15.80,250.7
"2016-02-28 00:13:30",1412598,20.73,288.9,1.326,0.455,17.53,106.1432,15,15.95,11.18,0,110.7,13.16,15.80,250.9
"2016-02-28 00:14:00",1412599,20.94,288.1,1.529,0.406,17.51,106.1429,15,15.94,11.42,0,110.7,13.16,15.80,250.1
"2016-02-28 00:14:30",1412600,20.74,288.9,1.383,0.566,17.5,106.1392,14.99,15.96,11.44,0,110.7,13.16,15.79,250.9
"2016-02-28 00:15:00",1412601,20.16,290.9,1.465,0.662,17.5,106.1381,14.99,15.95,11.49,0,110.7,13.16,15.79,252.9
"2016-02-28 00:15:30",1412602,21.09,290.1,1.452,0.4,17.6,106.1381,14.99,15.94,11.09,0,110.7,13.16,15.79,252.1
"2016-02-28 00:16:00",1412603,20.64,290.7,1.416,0.512,17.47,106.1399,14.99,15.95,11.24,0,110.7,13.16,15.80,252.7
"2016-02-28 00:16:30",1412604,20.87,288.7,1.515,0.733,17.56,106.1384,14.99,15.95,11.22,0,110.7,13.16,15.79,250.7
"2016-02-28 00:17:00",1412605,20.74,291.3,0.941,0.604,17.54,106.1399,14.99,15.94,11.18,0,110.7,13.16,15.80,253.3
"2016-02-28 00:17:30",1412606,18.78,288.8,1.854,1.314,17.56,106.1405,14.99,15.95,11.14,0,110.7,13.16,15.80,250.8
"2016-02-28 00:18:00",1412607,19.97,292.6,2.227,1.787,17.53,106.1414,15,15.95,11.28,0,110.7,13.16,15.80,254.6
"2016-02-28 00:18:30",1412608,22.25,290.7,2.275,0.448,17.65,106.1414,15,15.95,10.73,0,110.7,13.16,15.80,252.7
"2016-02-28 00:19:00",1412609,20.8,290.1,1.498,0.93,17.68,106.1417,15,15.95,10.42,0,110.7,13.16,15.80,252.1
"2016-02-28 00:19:30",1412610,19.94,289.3,1.57,0.582,17.53,106.1455,15.01,15.95,10.84,0,110.7,13.16,15.81,251.3
"2016-02-28 00:20:00",1412611,20.09,290.7,2.051,0.857,17.48,106.1505,15.02,15.96,11.13,0,110.7,13.17,15.82,252.7
"2016-02-28 00:20:30",1412612,20.54,291.4,3.184,1.159,17.53,106.148,15.01,15.97,11.07,0,110.7,13.16,15.82,253.4
"2016-02-28 00:21:00",1412613,20.9,291.3,2.101,0.784,17.48,106.1456,15.01,15.95,11.17,0,110.7,13.16,15.81,253.3
"2016-02-28 00:21:30",1412614,20.69,291.5,1.744,0.373,17.62,106.1447,15,15.96,10.8,0,110.7,13.16,15.81,253.5
"2016-02-28 00:22:00",1412615,21.04,292.3,2.898,0.69,17.47,106.145,15,15.95,11.15,0,110.7,13.16,15.81,254.3
"2016-02-28 00:22:30",1412616,20.78,288.5,3.027,0.937,17.7,106.1468,15.01,15.96,10.65,0,110.7,13.16,15.81,250.5
"2016-02-28 00:23:00",1412617,18.32,291.2,4.187,0.774,17.53,106.1447,15,15.95,10.97,0,110.7,13.16,15.81,253.2
"2016-02-28 00:23:30",1412618,17.05,294.5,4.434,1.571,17.64,106.1471,15.01,15.95,10.78,0,110.7,13.16,15.81,256.5
"2016-02-28 00:24:00",1412619,17.76,291.7,2.446,1.976,17.52,106.1474,15.01,15.95,11.18,0,110.7,13.16,15.81,253.7
"2016-02-28 00:24:30",1412620,19.71,291.5,2.659,0.709,17.61,106.1459,15.01,15.95,10.68,0,110.7,13.16,15.81,253.5
"2016-02-28 00:25:00",1412621,19.08,298.1,2.177,0.967,17.55,106.1462,15.01,15.95,10.97,0,110.7,13.17,15.81,260.1
"2016-02-28 00:25:30",1412622,17.56,290.9,2.942,0.813,17.54,106.1456,15.01,15.94,11.16,0,110.7,13.17,15.81,252.9
"2016-02-28 00:26:00",1412623,18.49,296.5,4.053,1.072,17.48,106.1442,15,15.94,11.37,0,110.6,13.16,15.81,258.5
"2016-02-28 00:26:30",1412624,19.86,293.6,2.754,0.738,17.58,106.1398,14.99,15.93,11.03,0,110.7,13.16,15.80,255.6
"2016-02-28 00:27:00",1412625,18.2,297.8,2.118,0.641,17.47,106.1365,14.98,15.93,11.26,0,110.7,13.17,15.79,259.8
"2016-02-28 00:27:30",1412626,18.41,294.7,1.949,1.084,17.49,106.1286,14.96,15.92,11.29,0,110.7,13.17,15.77,256.7
"2016-02-28 00:28:00",1412627,19.97,293.3,2.168,0.46,17.6,106.1147,14.93,15.91,11.1,0,110.6,13.16,15.73,255.3
"2016-02-28 00:28:30",1412628,20.44,290.2,2.713,0.584,17.55,106.116,14.93,15.92,11.18,0,110.6,13.16,15.73,252.2
"2016-02-28 00:29:00",1412629,18.9,291.6,1.949,0.412,17.53,106.1178,14.93,15.91,11.28,0,110.6,13.16,15.74,253.6
"2016-02-28 00:29:30",1412630,19.36,291.1,2.609,0.561,17.51,106.1175,14.93,15.88,11.31,0,110.6,13.16,15.74,253.1
"2016-02-28 00:30:00",1412631,18.69,288.7,0.946,0.561,17.57,106.1145,14.93,15.88,11.31,0,110.6,13.16,15.73,250.7
"2016-02-28 00:30:30",1412632,18.45,291.4,2.323,0.451,17.62,106.1057,14.9,15.87,11.26,0,110.6,13.16,15.71,253.4
"2016-02-28 00:31:00",1412633,18.36,291.8,1.151,0.239,17.66,106.0979,14.88,15.87,10.99,0,110.6,13.16,15.69,253.8
"2016-02-28 00:31:30",1412634,19.59,289.2,1.41,0.513,17.76,106.0996,14.89,15.84,10.73,0,110.6,13.16,15.69,251.2
"2016-02-28 00:32:00",1412635,19.59,287.8,1.376,0.394,17.83,106.0903,14.86,15.85,10.3,0,110.6,13.16,15.67,249.8
"2016-02-28 00:32:30",1412636,18.9,288.7,1.357,0.444,17.76,106.0875,14.86,15.82,10.49,0,110.6,13.16,15.66,250.7
"2016-02-28 00:33:00",1412637,18.77,290.3,2.332,0.311,17.63,106.0863,14.85,15.82,10.78,0,110.6,13.16,15.66,252.3
"2016-02-28 00:33:30",1412638,18.66,288.7,1.585,0.839,17.58,106.0866,14.85,15.82,11.08,0,110.6,13.16,15.66,250.7
"2016-02-28 00:34:00",1412639,19.92,286.9,1.991,0.712,17.61,106.0872,14.86,15.81,11.18,0,110.6,13.17,15.66,248.9
"2016-02-28 00:34:30",1412640,19.82,288,1.161,0.488,17.64,106.087,14.86,15.81,11,0,110.6,13.17,15.66,250.0
"2016-02-28 00:35:00",1412641,19.48,290.6,2.596,0.655,17.79,106.083,14.85,15.8,10.65,0,110.6,13.17,15.65,252.6
"2016-02-28 00:35:30",1412642,19.69,291.7,1.183,0.484,17.67,106.0819,14.84,15.8,10.63,0,110.6,13.17,15.65,253.7
"2016-02-28 00:36:00",1412643,18.97,291.1,1.015,0.39,17.65,106.0808,14.84,15.78,10.43,0,110.6,13.17,15.64,253.1
"2016-02-28 00:36:30",1412644,19.06,291.2,1.444,0.342,17.65,106.081,14.84,15.81,10.59,0,110.6,13.17,15.64,253.2
"2016-02-28 00:37:00",1412645,18.42,288.1,1.321,0.351,17.74,106.0808,14.84,15.78,10.35,0,110.6,13.17,15.64,250.1
"2016-02-28 00:37:30",1412646,18.26,287.9,1.581,0.28,17.71,106.0819,14.84,15.79,10.51,0,110.6,13.17,15.65,249.9
"2016-02-28 00:38:00",1412647,18.84,291.2,1.584,0.536,17.77,106.0839,14.85,15.77,10.42,0,110.6,13.17,15.65,253.2
"2016-02-28 00:38:30",1412648,18.55,289.9,1.07,0.388,17.72,106.0858,14.85,15.77,10.39,0,110.6,13.17,15.66,251.9
"2016-02-28 00:39:00",1412649,19.54,289.4,1.696,0.551,17.72,106.0867,14.85,15.78,10.61,0,110.6,13.17,15.66,251.4
"2016-02-28 00:39:30",1412650,19.14,287.8,2.239,0.639,17.8,106.0872,14.86,15.77,10.43,0,110.6,13.17,15.66,249.8
"2016-02-28 00:40:00",1412651,19.58,288,2.179,0.604,17.64,106.0872,14.86,15.79,10.77,0,110.6,13.17,15.66,250.0
"2016-02-28 00:40:30",1412652,19.03,292,1.302,0.372,17.73,106.0841,14.85,15.78,10.82,0,110.6,13.17,15.65,254.0
"2016-02-28 00:41:00",1412653,19.51,289.3,1.257,0.485,17.78,106.0794,14.84,15.79,10.49,0,110.6,13.17,15.64,251.3
"2016-02-28 00:41:30",1412654,19.9,288.2,1.771,0.347,17.84,106.0768,14.83,15.77,10.34,0,110.6,13.17,15.63,250.2
"2016-02-28 00:42:00",1412655,18.95,287.8,1.243,0.386,17.7,106.0726,14.82,15.77,10.61,0,110.6,13.17,15.62,249.8
"2016-02-28 00:42:30",1412656,18.33,291.1,3.094,0.46,17.69,106.067,14.8,15.76,10.88,0,110.6,13.17,15.61,253.1
"2016-02-28 00:43:00",1412657,19.34,288.5,3.831,0.799,17.76,106.0593,14.78,15.76,10.9,0,110.6,13.17,15.59,250.5
"2016-02-28 00:43:30",1412658,20.75,284.7,2.08,0.474,17.8,106.0534,14.77,15.75,10.61,0,110.6,13.17,15.57,246.7
"2016-02-28 00:44:00",1412659,19.37,286.6,1.624,0.849,17.78,106.0534,14.77,15.75,10.63,0,110.6,13.17,15.57,248.6
"2016-02-28 00:44:30",1412660,19.71,285.8,1.254,0.742,17.7,106.0534,14.77,15.74,10.88,0,110.6,13.17,15.57,247.8
"2016-02-28 00:45:00",1412661,19.43,285.7,2.369,0.582,17.66,106.0529,14.77,15.75,11.04,0,110.6,13.17,15.57,247.7
"2016-02-28 00:45:30",1412662,18.88,287.1,1.308,0.409,17.65,106.0472,14.75,15.73,11.11,0,110.6,13.17,15.56,249.1
"2016-02-28 00:46:00",1412663,20.02,286.3,1.282,0.557,17.64,106.0376,14.73,15.72,11.1,0,110.6,13.17,15.53,248.3
"2016-02-28 00:46:30",1412664,19.51,287.8,1.55,0.465,17.61,106.0207,14.69,15.7,11.09,0,110.6,13.17,15.49,249.8
"2016-02-28 00:47:00",1412665,18.34,289.7,3.048,0.879,17.63,106.0196,14.68,15.69,11.2,0,110.6,13.12,15.49,251.7
"2016-02-28 00:47:30",1412666,19.15,295.3,7.607,1.047,19.81,106.0171,14.68,15.89,11.42,0,110.6,13.12,15.48,257.3
"2016-02-28 00:48:00",1412667,19.43,290.8,8.53,1.38,19.39,106.005,14.65,15.78,11.07,0,110.6,13.12,15.45,252.8
"2016-02-28 00:48:30",1412668,19.21,287.1,1.601,0.407,17.03,105.9951,14.62,15.65,10.84,0,110.6,13.17,15.42,249.1
"2016-02-28 00:49:00",1412669,19.35,287.5,0.928,0.305,16.95,105.9858,14.6,15.63,10.99,0,110.6,13.17,15.40,249.5
"2016-02-28 00:49:30",1412670,18.87,287.8,0.958,0.296,17.05,105.9858,14.6,15.63,11.07,0,110.6,13.17,15.40,249.8
"2016-02-28 00:50:00",1412671,18.43,286.5,1.076,0.404,17.23,105.9864,14.6,15.61,11.12,0,110.6,13.17,15.40,248.5
"2016-02-28 00:50:30",1412672,18.78,286.7,2.162,0.466,17.36,105.9839,14.59,15.59,11.12,0,110.6,13.17,15.39,248.7
"2016-02-28 00:51:00",1412673,18.13,290.9,1.83,0.794,17.48,105.9777,14.58,15.59,10.98,0,110.6,13.17,15.38,252.9
"2016-02-28 00:51:30",1412674,17.92,289.5,1.74,0.36,17.5,105.9753,14.57,15.57,10.97,0,110.6,13.18,15.37,251.5
"2016-02-28 00:52:00",1412675,18.02,289,1.848,0.322,17.46,105.9663,14.55,15.58,11.21,0,110.6,13.18,15.35,251.0
"2016-02-28 00:52:30",1412676,19.57,287.3,1.475,0.685,17.57,105.9653,14.54,15.55,11.19,0,110.6,13.18,15.35,249.3
"2016-02-28 00:53:00",1412677,17.72,287.7,1.041,0.519,17.58,105.9585,14.53,15.56,11.26,0,110.6,13.18,15.33,249.7
"2016-02-28 00:53:30",1412678,18.89,287.5,6.358,1.483,19.15,105.9585,14.53,15.65,11.43,0,110.6,13.13,15.33,249.5
"2016-02-28 00:54:00",1412679,19.38,289.8,8.03,1.362,20.04,105.9609,14.53,15.73,11.23,0,110.6,13.13,15.34,251.8
"2016-02-28 00:54:30",1412680,17.9,285.9,4.533,0.947,17.58,105.9618,14.54,15.52,10.98,0,110.6,13.13,15.34,247.9
"2016-02-28 00:55:00",1412681,17.33,287.7,1.457,0.5,16.79,105.9624,14.54,15.51,11.3,0,110.6,13.18,15.34,249.7
"2016-02-28 00:55:30",1412682,16.24,288.9,3.042,0.47,16.97,105.9585,14.53,15.5,11.11,0,110.6,13.18,15.33,250.9
"2016-02-28 00:56:00",1412683,16.1,288.1,2.789,0.6,17.19,105.9578,14.52,15.5,11.01,0,110.6,13.18,15.33,250.1
"2016-02-28 00:56:30",1412684,15.7,284.9,2.319,0.636,17.44,105.9621,14.54,15.48,10.63,0,110.6,13.18,15.34,246.9
"2016-02-28 00:57:00",1412685,16.36,283.3,1.367,0.684,17.52,105.9615,14.53,15.48,10.69,0,110.6,13.18,15.34,245.3
"2016-02-28 00:57:30",1412686,16.58,284.7,2.221,0.392,17.43,105.966,14.55,15.48,11.31,0,110.6,13.18,15.35,246.7
"2016-02-28 00:58:00",1412687,16.39,289.5,1.378,0.755,17.53,105.9617,14.53,15.48,11.18,0,110.5,13.18,15.34,251.5
"2016-02-28 00:58:30",1412688,17.37,289.6,7.664,1.003,18.91,105.9613,14.53,15.58,11.32,0,110.5,13.13,15.34,251.6
"2016-02-28 00:59:00",1412689,18.91,295.5,7.892,1.538,20.17,105.9491,14.5,15.71,11.83,0,110.5,13.13,15.31,257.5
"2016-02-28 00:59:30",1412690,18.37,296,8.55,1.344,19.66,105.9489,14.5,15.62,11.73,0,110.5,13.13,15.30,258.0
"2016-02-28 01:00:00",1412691,17.39,294.4,6.355,1.519,18.57,105.9516,14.51,15.63,11.69,0,110.5,13.13,15.31,256.4
"2016-02-28 01:00:30",1412692,18.11,299.4,8.44,1.356,19.32,105.9519,14.51,15.58,11.57,0,110.5,13.13,15.31,261.4
"2016-02-28 01:01:00",1412693,15.15,293,7.485,0.966,17.95,105.9452,14.49,15.55,11.33,0,110.5,13.13,15.30,255.0
"2016-02-28 01:01:30",1412694,14.9,287,1.766,0.372,16.56,105.9398,14.48,15.43,11.23,0,110.5,13.18,15.28,249.0
"2016-02-28 01:02:00",1412695,15.08,288.2,1.738,0.45,16.73,105.9357,14.47,15.41,11.41,0,110.5,13.17,15.27,250.2
"2016-02-28 01:02:30",1412696,14.71,289.3,2.413,0.39,16.92,105.9337,14.46,15.41,11.54,0,110.5,13.17,15.27,251.3
"2016-02-28 01:03:00",1412697,14.51,290.6,3.009,0.389,17.06,105.9216,14.43,15.41,11.68,0,110.5,13.17,15.23,252.6
"2016-02-28 01:03:30",1412698,15.26,293.3,7.733,1.521,18.69,105.9202,14.43,15.46,11.76,0,110.5,13.12,15.23,255.3
"2016-02-28 01:04:00",1412699,14.91,299,9.64,1.602,19.63,105.9199,14.43,15.59,11.44,0,110.5,13.12,15.23,261.0
"2016-02-28 01:04:30",1412700,15.08,297.2,7.927,1.162,18.15,105.9151,14.42,15.38,10.78,0,110.5,13.13,15.22,259.2
"2016-02-28 01:05:00",1412701,16.42,292.4,5.253,1.648,18.26,105.9117,14.41,15.41,11.12,0,110.5,13.12,15.21,254.4
"2016-02-28 01:05:30",1412702,15.04,297,7.428,1.503,18.94,105.9094,14.4,15.53,11.09,0,110.5,13.13,15.20,259.0
"2016-02-28 01:06:00",1412703,14.98,298.5,5.675,1.092,18.45,105.91,14.4,15.41,10.57,0,110.5,13.12,15.20,260.5
"2016-02-28 01:06:30",1412704,13.68,291.3,3.963,0.538,16.57,105.912,14.41,15.35,11.03,0,110.5,13.17,15.21,253.3
"2016-02-28 01:07:00",1412705,13.3,290.4,1.726,0.653,16.53,105.9111,14.41,15.36,11.64,0,110.5,13.17,15.21,252.4
"2016-02-28 01:07:30",1412706,15.42,294.1,6.635,1.372,18.17,105.9066,14.39,15.48,11.8,0,110.5,13.13,15.20,256.1
"2016-02-28 01:08:00",1412707,16.4,297,7.494,1.358,18.98,105.8999,14.38,15.45,11.81,0,110.5,13.13,15.18,259.0
"2016-02-28 01:08:30",1412708,15.66,294.8,5.655,1.101,17.67,105.8889,14.35,15.36,11.69,0,110.5,13.13,15.15,256.8
"2016-02-28 01:09:00",1412709,15.75,296.3,6.037,1.239,19.15,105.8863,14.34,15.54,12.12,0,110.5,13.13,15.14,258.3
"2016-02-28 01:09:30",1412710,14.11,295.5,6.381,1.479,17.8,105.8863,14.34,15.34,11.78,0,110.5,13.13,15.14,257.5
"2016-02-28 01:10:00",1412711,15.23,297.8,8.04,1.502,19.42,105.8863,14.34,15.49,11.92,0,110.5,13.13,15.14,259.8
"2016-02-28 01:10:30",1412712,14.7,297.2,7.404,1.349,18.34,105.8776,14.32,15.42,11.77,0,110.5,13.13,15.12,259.2
"2016-02-28 01:11:00",1412713,14.06,289.9,1.571,0.386,16.48,105.87,14.3,15.29,11.76,0,110.5,13.18,15.10,251.9
"2016-02-28 01:11:30",1412714,14.56,290.7,1.044,0.368,16.27,105.8595,14.27,15.29,11.9,0,110.5,13.18,15.07,252.7
"2016-02-28 01:12:00",1412715,14.17,291.3,1.147,0.283,16.53,105.8525,14.26,15.27,12,0,110.5,13.18,15.06,253.3
"2016-02-28 01:12:30",1412716,13,293.4,2.255,0.687,16.75,105.8525,14.26,15.27,11.79,0,110.5,13.18,15.06,255.4
"2016-02-28 01:13:00",1412717,13.9,293.8,5.386,1.313,18.03,105.8525,14.26,15.36,12.23,0,110.6,13.14,15.06,255.8
"2016-02-28 01:13:30",1412718,15.24,299.3,7.16,1.405,20.13,105.8426,14.23,15.48,12.39,0,110.5,13.13,15.03,261.3
"2016-02-28 01:14:00",1412719,15.07,298.3,7.836,1.41,19.62,105.8263,14.19,15.38,12.3,0,110.5,13.13,14.99,260.3
"2016-02-28 01:14:30",1412720,14.63,296.1,6.56,1.244,18.25,105.8187,14.17,15.32,12.18,0,110.5,13.13,14.97,258.1
"2016-02-28 01:15:00",1412721,14.85,297.2,7.047,1.349,18.76,105.8193,14.17,15.39,12.11,0,110.5,13.13,14.97,259.2
"2016-02-28 01:15:30",1412722,12.61,299.2,3.424,0.847,16.7,105.8187,14.17,15.17,11.75,0,110.5,13.14,14.97,261.2
"2016-02-28 01:16:00",1412723,11.37,298.9,1.749,0.231,16.43,105.8165,14.16,15.17,11.55,0,110.5,13.18,14.96,260.9
"2016-02-28 01:16:30",1412724,11.88,294.8,2.248,0.512,16.42,105.812,14.15,15.15,11.73,0,110.5,13.18,14.95,256.8
"2016-02-28 01:17:00",1412725,11.69,293.5,1.858,0.23,16.56,105.8118,14.15,15.15,12.08,0,110.5,13.18,14.95,255.5
"2016-02-28 01:17:30",1412726,11.81,294.7,2.445,0.305,16.88,105.8047,14.13,15.14,11.96,0,110.5,13.18,14.93,256.7
"2016-02-28 01:18:00",1412727,11.78,294.1,4.694,0.798,17.14,105.7995,14.12,15.13,11.99,0,110.5,13.14,14.92,256.1
"2016-02-28 01:18:30",1412728,12.55,300.6,7.165,1.367,19.73,105.7942,14.11,15.33,12.22,0,110.5,13.14,14.91,262.6
"2016-02-28 01:19:00",1412729,13.19,304.7,7.465,1.458,20.8,105.7914,14.1,15.37,12.26,0,110.5,13.13,14.90,266.7
"2016-02-28 01:19:30",1412730,12.18,298.1,5.591,1.369,18.19,105.7923,14.1,15.23,12.05,0,110.5,13.13,14.90,260.1
"2016-02-28 01:20:00",1412731,12.25,303,8.18,1.534,19.66,105.7914,14.1,15.27,12.05,0,110.5,13.13,14.90,265.0
"2016-02-28 01:20:30",1412732,11.72,291.3,1.484,0.444,16.28,105.7932,14.1,15.09,12,0,110.5,13.18,14.90,253.3
"2016-02-28 01:21:00",1412733,10.73,296,1.635,0.322,16.26,105.795,14.11,15.1,12.02,0,110.5,13.18,14.91,258.0
"2016-02-28 01:21:30",1412734,10.34,295.3,0.829,0.316,16.44,105.7884,14.09,15.08,11.79,0,110.5,13.18,14.89,257.3
"2016-02-28 01:22:00",1412735,10.5,296,0.762,0.211,16.56,105.7881,14.09,15.07,11.84,0,110.5,13.18,14.89,258.0
"2016-02-28 01:22:30",1412736,10.65,300.5,2.325,0.298,16.75,105.7864,14.09,15.08,11.9,0,110.5,13.18,14.89,262.5
"2016-02-28 01:23:00",1412737,10.22,304.7,4.44,0.861,16.92,105.7854,14.08,15.1,11.96,0,110.5,13.18,14.88,266.7
"2016-02-28 01:23:30",1412738,11.95,311.2,7.858,1.515,20.31,105.7796,14.07,15.24,11.94,0,110.5,13.13,14.87,273.2
"2016-02-28 01:24:00",1412739,11.01,299.8,5.642,1.247,17.68,105.7836,14.08,15.18,11.65,0,110.5,13.13,14.88,261.8
"2016-02-28 01:24:30",1412740,10.55,302.7,6.557,1.349,17.89,105.7775,14.06,15.1,11.66,0,110.5,13.14,14.86,264.7
"2016-02-28 01:25:00",1412741,12.04,302.3,7.976,1.544,20.15,105.7712,14.05,15.27,12.05,0,110.5,13.14,14.85,264.3
"2016-02-28 01:25:30",1412742,13.02,297,7.274,1.45,19.4,105.7704,14.04,15.23,12.1,0,110.5,13.14,14.85,259.0
"2016-02-28 01:26:00",1412743,12.57,295.1,3.96,0.939,17.06,105.771,14.05,15.12,12.04,0,110.5,13.14,14.85,257.1
"2016-02-28 01:26:30",1412744,11.75,290.6,3.331,0.392,16.19,105.7728,14.05,15.04,11.99,0,110.5,13.18,14.85,252.6
"2016-02-28 01:27:00",1412745,11.82,291,3.445,0.398,16.24,105.7713,14.05,15.04,11.99,0,110.5,13.18,14.85,253.0
"2016-02-28 01:27:30",1412746,11.5,296.7,2.071,0.703,16.56,105.7725,14.05,15.03,12.03,0,110.5,13.19,14.85,258.7
"2016-02-28 01:28:00",1412747,13.3,295.4,5.597,1.185,17.54,105.7725,14.05,15.07,12.17,0,110.5,13.14,14.85,257.4
"2016-02-28 01:28:30",1412748,14.19,300.5,7.962,1.441,19.86,105.7723,14.05,15.21,12.22,0,110.5,13.14,14.85,262.5
"2016-02-28 01:29:00",1412749,12.28,295,1.964,0.491,16.95,105.7669,14.04,15.02,11.85,0,110.5,13.15,14.84,257.0
"2016-02-28 01:29:30",1412750,12.51,292,1.33,0.331,16.87,105.7627,14.03,15,11.81,0,110.5,13.19,14.83,254.0
"2016-02-28 01:30:00",1412751,13.68,298,7.184,1.42,19.86,105.7584,14.01,15.18,12.03,0,110.5,13.15,14.82,260.0
"2016-02-28 01:30:30",1412752,13.37,301.5,7.128,1.413,19.69,105.7525,14,15.21,12.01,0,110.5,13.15,14.80,263.5
"2016-02-28 01:31:00",1412753,11.97,298.6,5.926,1.438,17.71,105.7514,14,15.09,12.02,0,110.5,13.14,14.80,260.6
"2016-02-28 01:31:30",1412754,10.23,292.4,3.512,0.292,16.1,105.7495,13.99,14.99,11.95,0,110.5,13.19,14.79,254.4
"2016-02-28 01:32:00",1412755,10.34,294.1,1.908,0.333,16.18,105.7473,13.99,14.99,12.08,0,110.5,13.19,14.79,256.1
"2016-02-28 01:32:30",1412756,12,295.4,5.424,1.102,17.25,105.7482,13.99,14.99,12.1,0,110.5,13.14,14.79,257.4
"2016-02-28 01:33:00",1412757,11.94,298.2,5.926,1.29,18.13,105.7473,13.99,15.17,12.27,0,110.4,13.14,14.79,260.2
"2016-02-28 01:33:30",1412758,11.84,299.5,6.106,1.228,17.94,105.7491,13.99,15.03,12.21,0,110.5,13.15,14.79,261.5
"2016-02-28 01:34:00",1412759,10.76,295.4,1.513,0.194,16.46,105.7506,13.99,15.03,12.32,0,110.4,13.19,14.79,257.4
"2016-02-28 01:34:30",1412760,12.24,306,7.726,1.508,19.63,105.7494,13.99,15.15,12.4,0,110.4,13.15,14.79,268.0
"2016-02-28 01:35:00",1412761,10.48,302,5.73,1.089,17.37,105.7497,13.99,15.1,12.39,0,110.5,13.15,14.79,264.0
"2016-02-28 01:35:30",1412762,10.64,310,6.743,1.49,19.15,105.7412,13.97,15.14,12.46,0,110.4,13.15,14.77,272.0
"2016-02-28 01:36:00",1412763,9.56,301.9,6.381,0.99,17.17,105.7315,13.95,15.05,12.39,0,110.4,13.14,14.75,263.9
"2016-02-28 01:36:30",1412764,9.73,297.8,2.634,0.335,16.22,105.7202,13.92,14.93,12.24,0,110.4,13.19,14.72,259.8
"2016-02-28 01:37:00",1412765,9.72,293.6,1.412,0.347,16.39,105.7191,13.91,14.93,12.23,0,110.4,13.19,14.71,255.6
"2016-02-28 01:37:30",1412766,10.72,300.5,7.326,1.46,18.52,105.7182,13.91,15.11,12.47,0,110.4,13.14,14.71,262.5
"2016-02-28 01:38:00",1412767,11.41,300.7,9.16,1.518,18.51,105.7191,13.91,15.05,12.49,0,110.4,13.14,14.71,262.7
"2016-02-28 01:38:30",1412768,11.67,302,5.469,1.001,17.19,105.7163,13.91,15,12.49,0,110.4,13.14,14.71,264.0
"2016-02-28 01:39:00",1412769,12.43,305.1,7.874,1.352,18.83,105.7047,13.88,14.99,12.41,0,110.4,13.14,14.68,267.1
"2016-02-28 01:39:30",1412770,12.39,302.9,6.591,1.575,17.71,105.7008,13.87,14.99,12.24,0,110.4,13.14,14.67,264.9
"2016-02-28 01:40:00",1412771,10.66,301.5,2.574,0.348,16.18,105.6943,13.85,14.86,12.15,0,110.4,13.19,14.65,263.5
"2016-02-28 01:40:30",1412772,11.44,304.6,6.872,1.749,18.34,105.6861,13.83,15.05,12.4,0,110.4,13.14,14.63,266.6
"2016-02-28 01:41:00",1412773,11.71,303,6.08,1.131,17.47,105.6853,13.83,14.94,12.29,0,110.4,13.14,14.63,265.0
"2016-02-28 01:41:30",1412774,11.48,302.3,1.357,0.282,16.36,105.6853,13.83,14.86,12.28,0,110.4,13.19,14.63,264.3
"2016-02-28 01:42:00",1412775,13.44,310.6,7.939,1.469,19.31,105.6853,13.83,15.02,12.5,0,110.4,13.15,14.63,272.6
"2016-02-28 01:42:30",1412776,12.1,311.4,7.048,1.274,18.17,105.685,13.83,14.92,12.45,0,110.4,13.15,14.63,273.4
"2016-02-28 01:43:00",1412777,11.43,315,6.975,1.35,18.7,105.6833,13.82,14.92,12.42,0,110.4,13.15,14.62,277.0
"2016-02-28 01:43:30",1412778,9.84,312.3,6.287,1.106,17.88,105.6799,13.81,14.93,12.41,0,110.4,13.15,14.61,274.3
"2016-02-28 01:44:00",1412779,9.05,306.2,1.622,0.237,16.26,105.676,13.8,14.81,12.3,0,110.4,13.19,14.60,268.2
"2016-02-28 01:44:30",1412780,8.44,305.7,1.483,0.197,16.05,105.6737,13.8,14.79,12.33,0,110.4,13.19,14.60,267.7
"2016-02-28 01:45:00",1412781,10,308.5,7.995,1.492,18.82,105.6653,13.78,14.96,12.49,0,110.4,13.15,14.58,270.5
"2016-02-28 01:45:30",1412782,10.28,309.7,6.293,1.512,18.21,105.6543,13.75,14.89,12.39,0,110.4,13.15,14.55,271.7
"2016-02-28 01:46:00",1412783,9.65,308.5,5.725,1.141,17.34,105.6514,13.74,14.88,12.5,0,110.4,13.15,14.54,270.5
"2016-02-28 01:46:30",1412784,10.38,314.4,7.272,1.443,18.58,105.6514,13.74,14.88,12.54,0,110.4,13.15,14.54,276.4
"2016-02-28 01:47:00",1412785,9.54,312.9,5.938,1.099,17.84,105.6514,13.74,14.89,12.59,0,110.4,13.15,14.54,274.9